BADR-5

Last updated on Mon Jul 07 2025 00:02:43 GMT+0000 (Coordinated Universal Time)

1 36592U 10025A 25187.56933277 .00000162 00000+0 00000+0 0 9995 2 36592 0.0595 112.2637 0005474 14.4268 29.0487 1.00272722 49751
UTC large
Height (km)
Speed (km/s)
/
Latitude / Longitude
Inclination (degrees)
Orbital Period (minutes)
Azimuth
Elevation
Range (km)
Doppler Factor

Next 0 passes for location: London (51.5072 / 0.1276)

Sorry there are no passes over London.